Weather History for Crestview, FL

Change the Weather History Date:

Thursday, December 6, 2012

  Actual Average Record
Temperature  
Mean Temperature 62 °F -  
Max Temperature 78 °F 65 °F 80 °F (1951)
Min Temperature 46 °F 36 °F 24 °F (2000)
Degree Days  
Heating Degree Days 3    
Growing Degree Days 12 (Base 50)    
Moisture  
Dew Point 52 °F    
Average Humidity 79    
Maximum Humidity 94    
Minimum Humidity 45    
Precipitation  
Precipitation 0.00 in - - ()
Sea Level Pressure  
Sea Level Pressure 30.04 in    
Wind  
Wind Speed 1 mph (ENE)    
Max Wind Speed 8 mph    
Max Gust Speed -    
Visibility 9 miles    
Events      
Averages and records for this station are not official NWS values.
T = Trace of Precipitation, MM = Missing Value Source: NWS Daily Summary

Daily Weather History Graph

Daily Weather History Graph

Search for Another Location

Airport:

Trip Planner

Search our weather history database for the weather conditions in past years. The results will help you decide how hot, cold, wet, or windy it might be!

Date:

Astronomy

Dec. 06, 2012 Rise Set
Actual Time 6:30 AM CST 4:44 PM CST
Civil Twilight 6:03 AM CST 5:10 PM CST
Nautical Twilight 5:33 AM CST 5:40 PM CST
Astronomical Twilight 5:04 AM CST 6:10 PM CST
Moon No Moon Rise 11:45 AM CST (12/6)
Length of Visible Light 11h 06m
Length of Day
10h 14m
Waning Gibbous, 49% of the Moon is Illuminated
Dec 6
Waning Gibbous
Dec 13
New
Dec 19
First Quarter
Dec 28
Full
Jan 4
Last Quarter

Hourly Weather History & Observations

Time (CST) Temp. Dew Point Humidity Pressure Visibility Wind Dir Wind Speed Gust Speed Precip Events Conditions
12:00 AM 51.8 °F 48.2 °F 88% 30.09 in 1.2 mi Calm Calm - N/A   Mostly Cloudy
12:16 AM 51.8 °F 50.0 °F 94% 30.08 in 9.0 mi Calm Calm - N/A   Mostly Cloudy
12:49 AM 50.0 °F 48.2 °F 94% 30.07 in 8.0 mi Calm Calm - N/A   Mostly Cloudy
12:53 AM 51.1 °F 48.9 °F 92% 30.07 in 9.0 mi Calm Calm - N/A   Mostly Cloudy
1:07 AM 51.8 °F 48.2 °F 88% 30.07 in 7.0 mi Calm Calm - N/A   Scattered Clouds
1:53 AM 51.1 °F 48.9 °F 92% 30.06 in 10.0 mi Calm Calm - N/A   Partly Cloudy
2:53 AM 48.9 °F 46.9 °F 93% 30.05 in 8.0 mi Calm Calm - N/A   Clear
3:53 AM 48.0 °F 46.0 °F 93% 30.04 in 9.0 mi Calm Calm - N/A   Clear
4:53 AM 46.9 °F 44.1 °F 90% 30.04 in 9.0 mi Calm Calm - N/A   Clear
5:53 AM 46.0 °F 44.1 °F 93% 30.06 in 8.0 mi Calm Calm - N/A   Clear
6:53 AM 46.0 °F 44.1 °F 93% 30.08 in 6.0 mi Calm Calm - N/A   Clear
7:53 AM 55.0 °F 52.0 °F 89% 30.08 in 10.0 mi Calm Calm - N/A   Clear
8:53 AM 63.0 °F 55.0 °F 75% 30.09 in 10.0 mi ENE 3.5 mph - N/A   Clear
9:53 AM 71.1 °F 57.9 °F 63% 30.08 in 10.0 mi ESE 3.5 mph - N/A   Clear
10:53 AM 75.0 °F 57.0 °F 53% 30.06 in 10.0 mi ESE 8.1 mph - N/A   Clear
11:53 AM 75.9 °F 55.9 °F 50% 30.03 in 10.0 mi East 8.1 mph - N/A   Clear
12:53 PM 78.1 °F 55.0 °F 45% 30.00 in 10.0 mi Variable 4.6 mph - N/A   Clear
1:53 PM 75.0 °F 54.0 °F 48% 29.99 in 10.0 mi Variable 3.5 mph - N/A   Scattered Clouds
2:53 PM 75.9 °F 54.0 °F 46% 29.99 in 10.0 mi ENE 4.6 mph - N/A   Partly Cloudy
3:53 PM 73.9 °F 54.0 °F 50% 29.99 in 10.0 mi Calm Calm - N/A   Clear
4:53 PM 64.0 °F 57.0 °F 78% 29.99 in 10.0 mi Calm Calm - N/A   Partly Cloudy
5:53 PM 60.1 °F 55.9 °F 86% 30.01 in 10.0 mi Calm Calm - N/A   Mostly Cloudy
7:53 PM 57.9 °F 54.0 °F 87% 30.02 in 10.0 mi Calm Calm - N/A   Mostly Cloudy
8:53 PM 57.0 °F 54.0 °F 89% 30.01 in 10.0 mi NE 3.5 mph - N/A   Scattered Clouds
9:53 PM 57.9 °F 54.0 °F 87% 30.02 in 10.0 mi ENE 3.5 mph - N/A   Scattered Clouds
10:53 PM 59.0 °F 55.0 °F 87% 30.02 in 10.0 mi NE 3.5 mph - N/A   Partly Cloudy
11:53 PM 59.0 °F 55.0 °F 87% 30.01 in 10.0 mi Calm Calm - N/A   Partly Cloudy